Siloam Springs, AR

3:10 PM CST on February 23, 2018 (GMT -0600)
Smith

Weather History for KSLG - May, 2013

Change the Weather History Date:

Monday, May 20, 2013

  Actual Average Record
Temperature  
Mean Temperature 72 °F -  
Max Temperature 75 °F 73 °F 89 °F (1998)
Min Temperature 69 °F 55 °F 48 °F (2007)
Cooling Degree Days 7    
Growing Degree Days 22 (Base 50)    
Moisture  
Dew Point 64 °F    
Average Humidity 72    
Maximum Humidity 78    
Minimum Humidity 65    
Precipitation  
Precipitation 0.07 in - - ()
Sea Level Pressure  
Sea Level Pressure 29.80 in    
Wind  
Wind Speed 11 mph (SSE)    
Max Wind Speed 17 mph    
Max Gust Speed 23 mph    
Visibility 10 miles    
Events Thunderstorm    
Averages and records for this station are not official NWS values.
T = Trace of Precipitation, MM = Missing Value Source: NWS Daily Summary

Daily Weather History Graph

Daily Weather History Graph

Search for Another Location

Airport or City:

Trip Planner

Search our weather history database for the weather conditions in past years. The results will help you decide how hot, cold, wet, or windy it might be!

Date:

Astronomy

May. 20, 2013 Rise Set
Actual Time 6:07 AM CDT 8:21 PM CDT
Civil Twilight 5:38 AM CDT 8:50 PM CDT
Nautical Twilight 5:03 AM CDT 9:26 PM CDT
Astronomical Twilight 4:24 AM CDT 10:05 PM CDT
Moon 3:37 PM CDT (5/20) 2:54 AM CDT (5/20)
Length of Visible Light 15h 11m
Length of Day
14h 13m
Waxing Gibbous, 75% of the Moon is Illuminated
May 20
Waxing Gibbous
May 24
Full
May 31
Last Quarter
Jun 8
New
Jun 16
First Quarter

Hourly Weather History & Observations

Time (CDT) Temp. Dew Point Humidity Pressure Visibility Wind Dir Wind Speed Gust Speed Precip Events Conditions
12:15 AM 75.2 °F 64.4 °F 69% 29.78 in 10.0 mi South 11.5 mph 19.6 mph N/A   Clear
12:35 AM 75.2 °F 64.4 °F 69% 29.77 in 10.0 mi South 17.3 mph 21.9 mph N/A   Clear
12:55 AM 75.2 °F 64.4 °F 69% 29.77 in 10.0 mi South 12.7 mph - N/A   Clear
1:15 AM 75.2 °F 64.4 °F 69% 29.77 in 10.0 mi South 15.0 mph 19.6 mph N/A   Clear
1:35 AM 75.2 °F 64.4 °F 69% 29.77 in 10.0 mi South 12.7 mph 19.6 mph N/A   Partly Cloudy
1:55 AM 75.2 °F 64.4 °F 69% 29.77 in 10.0 mi South 12.7 mph 18.4 mph N/A   Partly Cloudy
2:15 AM 75.2 °F 62.6 °F 65% 29.76 in 10.0 mi South 12.7 mph 18.4 mph N/A   Clear
2:35 AM 73.4 °F 62.6 °F 69% 29.76 in 10.0 mi South 11.5 mph 18.4 mph N/A   Clear
3:15 AM 73.4 °F 62.6 °F 69% 29.77 in 10.0 mi South 11.5 mph - N/A   Clear
3:35 AM 73.4 °F 62.6 °F 69% 29.76 in 10.0 mi South 12.7 mph 18.4 mph N/A   Clear
3:55 AM 73.4 °F 62.6 °F 69% 29.77 in 10.0 mi South 12.7 mph 20.7 mph N/A   Clear
4:15 AM 73.4 °F 62.6 °F 69% 29.77 in 10.0 mi South 13.8 mph 20.7 mph N/A   Clear
4:35 AM 73.4 °F 62.6 °F 69% 29.77 in 10.0 mi South 13.8 mph 18.4 mph N/A   Clear
4:55 AM 73.4 °F 62.6 °F 69% 29.78 in 10.0 mi South 13.8 mph 18.4 mph N/A   Clear
5:15 AM 71.6 °F 62.6 °F 73% 29.77 in 10.0 mi SSE 11.5 mph 18.4 mph N/A   Clear
5:35 AM 71.6 °F 62.6 °F 73% 29.79 in 10.0 mi SSE 8.1 mph 16.1 mph N/A   Clear
5:55 AM 71.6 °F 62.6 °F 73% 29.81 in 10.0 mi Calm Calm - N/A   Clear
6:15 AM 69.8 °F 62.6 °F 78% 29.82 in 10.0 mi SSE 4.6 mph - N/A   Clear
6:35 AM 71.6 °F 62.6 °F 73% 29.82 in 10.0 mi ESE 6.9 mph - N/A   Scattered Clouds
6:55 AM 71.6 °F 62.6 °F 73% 29.83 in 10.0 mi SE 5.8 mph - N/A   Overcast
7:15 AM 71.6 °F 62.6 °F 73% 29.83 in 10.0 mi SE 6.9 mph - N/A   Overcast
7:35 AM 71.6 °F 62.6 °F 73% 29.84 in 10.0 mi SE 10.4 mph 17.3 mph N/A   Overcast
7:55 AM 71.6 °F 62.6 °F 73% 29.84 in 10.0 mi SSE 11.5 mph - N/A   Overcast
8:15 AM 71.6 °F 62.6 °F 73% 29.84 in 10.0 mi SSE 11.5 mph 16.1 mph N/A   Overcast
8:35 AM 71.6 °F 62.6 °F 73% 29.84 in 10.0 mi SSE 13.8 mph 18.4 mph N/A   Overcast
8:55 AM 71.6 °F 62.6 °F 73% 29.84 in 10.0 mi South 12.7 mph 19.6 mph N/A   Overcast
9:15 AM 71.6 °F 62.6 °F 73% 29.84 in 10.0 mi SSE 13.8 mph 17.3 mph N/A   Overcast
9:35 AM 71.6 °F 62.6 °F 73% 29.84 in 10.0 mi SSE 13.8 mph - N/A   Overcast
10:35 AM 71.6 °F 62.6 °F 73% 29.85 in 10.0 mi South 10.4 mph - N/A   Overcast
10:55 AM 71.6 °F 62.6 °F 73% 29.85 in 9.0 mi South 10.4 mph - N/A   Overcast
11:15 AM 71.6 °F 62.6 °F 73% 29.85 in 10.0 mi South 11.5 mph - N/A   Overcast
11:35 AM 71.6 °F 62.6 °F 73% 29.84 in 10.0 mi South 9.2 mph - N/A   Overcast
11:55 AM 71.6 °F 64.4 °F 78% 29.84 in 10.0 mi SSE 10.4 mph - N/A   Overcast
12:15 PM 71.6 °F 64.4 °F 78% 29.84 in 10.0 mi SSE 11.5 mph 17.3 mph N/A   Overcast
12:35 PM 71.6 °F 64.4 °F 78% 29.83 in 10.0 mi South 8.1 mph - N/A   Overcast
1:15 PM 73.4 °F 64.4 °F 73% 29.82 in 10.0 mi South 11.5 mph - N/A   Overcast
1:55 PM 75.2 °F 64.4 °F 69% 29.81 in 10.0 mi South 15.0 mph 23.0 mph N/A   Overcast
2:15 PM 73.4 °F 64.4 °F 73% 29.81 in 10.0 mi South 12.7 mph 16.1 mph N/A   Overcast
2:35 PM 75.2 °F 64.4 °F 69% 29.81 in 10.0 mi South 11.5 mph 18.4 mph N/A   Overcast
2:55 PM 75.2 °F 64.4 °F 69% 29.81 in 10.0 mi South 10.4 mph - N/A   Overcast
3:15 PM 75.2 °F 64.4 °F 69% 29.80 in 10.0 mi South 9.2 mph - N/A   Overcast
3:35 PM 75.2 °F 66.2 °F 73% 29.78 in 10.0 mi SSE 10.4 mph - N/A   Overcast
3:55 PM 75.2 °F 66.2 °F 73% 29.77 in 10.0 mi SSE 6.9 mph - N/A   Overcast
4:15 PM 75.2 °F 66.2 °F 73% 29.76 in 10.0 mi South 10.4 mph - N/A   Overcast
4:35 PM 75.2 °F 66.2 °F 73% 29.76 in 10.0 mi South 6.9 mph - N/A   Overcast
4:55 PM 75.2 °F 66.2 °F 73% 29.76 in 10.0 mi South 9.2 mph - N/A   Overcast
5:15 PM 75.2 °F 66.2 °F 73% 29.77 in 10.0 mi South 9.2 mph - N/A   Overcast
5:35 PM 73.4 °F 66.2 °F 78% 29.78 in 9.0 mi South 6.9 mph - N/A   Overcast
5:55 PM 75.2 °F 66.2 °F 73% 29.74 in 9.0 mi SE 9.2 mph - N/A   Mostly Cloudy
6:15 PM 73.4 °F 66.2 °F 78% 29.76 in 9.0 mi South 8.1 mph - N/A Thunderstorm Mostly Cloudy
6:35 PM 73.4 °F 66.2 °F 78% 29.72 in 7.0 mi SSE 10.4 mph - 0.07 in Thunderstorm Thunderstorm